Location: B�di�
(14.6834°N, 3.1047°W)
Time: 14:51:38
(UTC+00:00)

GPS 2-12 Rocket1 - Pass Details

Date: 24 January 2020
Orbit: 586 x 652 km, 20.0° (Epoch: 26 February)

Event Time Altitude Azimuth Distance (km) Brightness Sun altitude
Rises 18:16:22 0° 284° (WNW) 2,944 7.6 -2.9°
Reaches altitude 10° 18:18:45 10° 284° (WNW) 2,038 6.7 -3.5°
Maximum altitude 18:23:34 89° 200° (SSW) 649 3.2 -4.6°
Drops below altitude 10° 18:28:22 10° 106° (ESE) 2,034 5.2 -5.7°
Enters shadow 18:30:12 - 106° (ESE) 2,730 5.9 -6.1°
